Location: Aufkirchen
(47.9603°N, 11.3653°E)
Time: 04:23:18
(UTC+01:00)

Vanguard 3 - Pass Details

Date: 27 November 2020
Orbit: 508 x 3262 km, 33.3° (Epoch: 23 January)

Event Time Altitude Azimuth Distance (km) Brightness Sun altitude
Rises 01:41:10 0° 249° (WSW) 3,298 - -56.7°
Reaches altitude 10° 01:44:08 10° 229° (SW) 2,685 - -56.3°
Maximum altitude 01:48:17 18° 189° (S) 2,629 - -55.8°
Drops below altitude 10° 01:53:53 10° 152° (SSE) 3,814 - -55.1°
Exits shadow 01:58:04 - 139° (SE) 5,020 11.2 -54.5°
Sets 01:59:24 0° 137° (SE) 5,414 11.4 -54.4°
